Location: U-46 Planetarium
(42.0300°N, 88.2740°W)
Time: 18:04:57
(UTC-05:00)

USA 215 - Pass Details

Date: 16 December 2017
Orbit: 1101 x 1107 km, 123.0° (Epoch: 21 April)

Event Time Altitude Azimuth Distance (km) Brightness Sun altitude
Rises 17:23:39 0° 135° (SE) 3,906 5.9 -11.0°
Reaches altitude 10° 17:26:08 10° 137° (SE) 2,952 5.3 -11.4°
Maximum altitude 17:32:40 78° 223° (SW) 1,130 3.4 -12.5°
Drops below altitude 10° 17:39:14 10° 310° (NW) 2,968 5.9 -13.7°
Sets 17:41:44 0° 312° (NW) 3,930 6.6 -14.1°
